Renton, WA
on Wednesday, November 21, 2012

Wednesday
Previous Day Next Day
Daily Summary
 ActualAverage (KSEA)Record (KSEA)
Temperature
Mean Temperature °F 44°F  
Max Temperature 48°F 50°F 62°F (1954)
Min Temperature 43°F 39°F 21°F (1977)
Degree Days
Heating Degree Days 19 21  
Month to date heating degree days 390  
Since 1 July heating degree days 987  
Cooling Degree Days 0 0  
Month to date cooling degree days 0  
Year to date cooling degree days 189  
Moisture
Dew Point 39°F   
Average Humidity 76    
Maximum Humidity 86    
Minimum Humidity 66    
Precipitation
Precipitation 0.38 in 0.23 in 1.26 in (1980)
Month to date precipitation 4.58  
Year to date precipitation 30.15  
Snow
Snow 0.00 in in 7.80 in (1985)
Month to date snowfall  
Since 1 July snowfall  
Snow Depth in   
Wind
Wind Speed 7 mph   
Max Wind Speed 23 mph   
Max Gust Speed 36 mph   
Visibility 9 miles   
Events Rain   

Key: T is trace of precipitation, MM is missing value
Source: NWS Daily Summary
Time(PST)TemperatureDew PointHumidity Pressure Visibility Wind DirectionWind SpeedGust SpeedPrecipitationEvents Conditions
12:53 AM 48.0°F 39.9°F 74% 29.55 in 10.0 miles Calm Calm - N/A   Overcast
1:53 AM 48.0°F 39.0°F 71% 29.55 in 6.0 miles South 8.1 mph - 0.01 in Rain Rain
2:53 AM 46.0°F 42.1°F 86% 29.56 in 10.0 miles SSE 3.5 mph - 0.03 in   Overcast
3:53 AM 46.9°F 42.1°F 83% 29.57 in 10.0 miles Calm Calm - 0.00 in Rain Light Rain
4:53 AM 48.9°F 39.9°F 71% 29.59 in 10.0 miles SSE 6.9 mph - 0.00 in   Overcast
5:50 AM 48.2°F 39.2°F 71% 29.63 in 5.0 miles South 23.0 mph 35.7 mph 0.03 in Rain Rain
5:53 AM 48.0°F 39.9°F 74% 29.66 in 5.0 miles South 17.3 mph 35.7 mph 0.04 in Rain Light Rain
6:27 AM 46.4°F 41.0°F 81% 29.69 in 7.0 miles South 11.5 mph 23.0 mph 0.00 in   Overcast
6:34 AM 46.4°F 39.2°F 76% 29.70 in 5.0 miles SSE 15.0 mph 29.9 mph 0.02 in Rain Light Rain
6:53 AM 46.0°F 39.9°F 79% 29.73 in 10.0 miles South 12.7 mph 21.9 mph 0.04 in   Overcast
7:53 AM 46.9°F 39.9°F 77% 29.78 in 10.0 miles SSE 10.4 mph - N/A   Overcast
8:53 AM 46.4°F 39.2°F 76% 29.81 in 10.0 miles SSE 12.7 mph - N/A   Mostly Cloudy
9:53 AM 45.0°F 39.0°F 80% 29.86 in 8.0 miles SSE 4.6 mph - 0.08 in Rain Light Rain
10:09 AM 44.6°F 39.2°F 81% 29.85 in 10.0 miles Calm Calm - 0.00 in Rain Light Rain
10:53 AM 46.0°F 42.1°F 86% 29.88 in 4.0 miles SSE 5.8 mph - 0.02 in Rain Rain
11:53 AM 46.0°F 39.9°F 79% 29.90 in 7.0 miles South 11.5 mph 18.4 mph 0.06 in   Overcast
12:25 PM 46.4°F 41.0°F 81% 29.89 in 10.0 miles SSE 6.9 mph - N/A   Overcast
12:53 PM 48.0°F 39.9°F 74% 29.92 in 10.0 miles SSE 13.8 mph 20.7 mph N/A   Scattered Clouds
1:35 PM 46.4°F 39.2°F 76% 29.92 in 4.0 miles South 9.2 mph 19.6 mph 0.05 in Rain Rain
1:53 PM 46.9°F 39.0°F 74% 29.96 in 3.0 miles SSW 8.1 mph 18.4 mph 0.09 in Rain Rain
2:27 PM 48.2°F 39.2°F 71% 29.95 in 10.0 miles South 10.4 mph - 0.01 in Rain Light Rain
2:53 PM 48.0°F 39.9°F 74% 29.98 in 10.0 miles South 9.2 mph 18.4 mph 0.01 in Rain Light Rain
3:00 PM 48.2°F 39.2°F 71% 29.97 in 10.0 miles South 11.5 mph 16.1 mph 0.00 in   Overcast
3:53 PM 48.0°F 39.0°F 71% 30.04 in 10.0 miles South 11.5 mph 19.6 mph 0.00 in   Mostly Cloudy
4:18 PM 48.2°F 37.4°F 66% 30.04 in 10.0 miles South 12.7 mph 21.9 mph N/A   Overcast
4:53 PM 46.9°F 37.9°F 71% 30.07 in 10.0 miles SSE 10.4 mph - N/A   Mostly Cloudy
5:37 PM 46.4°F 39.2°F 76% 30.09 in 10.0 miles SE 4.6 mph - N/A   Overcast
5:53 PM 46.9°F 39.0°F 74% 30.12 in 10.0 miles SE 4.6 mph - N/A   Overcast
6:53 PM 46.9°F 39.0°F 74% 30.16 in 10.0 miles South 11.5 mph - N/A   Overcast
7:53 PM 46.0°F 37.9°F 73% 30.19 in 10.0 miles SSE 5.8 mph - N/A   Overcast
8:53 PM 46.0°F 37.9°F 73% 30.24 in 10.0 miles SSE 5.8 mph - N/A   Overcast
9:17 PM 46.4°F 37.4°F 71% 30.24 in 10.0 miles SSE 6.9 mph - N/A   Mostly Cloudy
9:53 PM 45.0°F 37.0°F 74% 30.27 in 10.0 miles SE 5.8 mph - N/A   Clear
10:53 PM 44.1°F 37.0°F 76% 30.30 in 10.0 miles Calm Calm - N/A   Mostly Cloudy
11:53 PM 43.0°F 37.0°F 80% 30.32 in 10.0 miles SE 3.5 mph - N/A   Partly Cloudy
Moon Phase
Nov. 21 Nov. 28 Dec. 06 Dec. 13 Dec. 20
Sunrise:07:23 AM (PST) Moon Rise:01:08 PM (PST)11/21
Sunset:04:26 PM (PST) Moon Set:12:22 AM (PST)11/21

Copyright © 2014 The Weather Underground, Inc.